STARLINK-36085 (67035 NORAD) Tracking and Keplerian Element Data

This shows tracking and keplerian element data for the satellite.

Feedback or suggestion? Click here.




ElementValue
Catalog67035
NameSTARLINK-36085
Epoch Orbit132
Epoch Day354.25003472
Epoch Year2025
RAAN136.266
Inclination42.9999
Eccentricity0.0001645
Argument of Perigee260.6511
Mean Anonmoly336.4341
Mean Motion15.88748093
Decay Rate-0.01358741
L11 67035U 25294F 25354.25003472 -.01358741 00000+0 -53009-2 0 9994
L22 67035 42.9999 136.2660 0001645 260.6511 336.4341 15.88748093 1329



Live tracking and technical data element details for STARLINK-36085 (NORAD 67035). STARLINK-36085 can be tracked NOW for your location showing map with azimuth and elevation plus other details from your city location.







IsCatalogInMostPopularTable: catalog: 67035, numindb: 87
Update: records affected: 1



GetName: 67035 STARLINK-36085

Hit Count: updated at: Mon, 18 May 2026 10:00:24 GMT